FLOCK 4S-48 (47617 NORAD) Tracking and Keplerian Element Data
This shows tracking and keplerian element data for the satellite.
Feedback or suggestion? Click here.
Element | Value |
Catalog | 47617 |
Name | FLOCK 4S-48 |
Epoch Orbit | 615 |
Epoch Day | 56.88454075 |
Epoch Year | 2021 |
RAAN | 120.0485 |
Inclination | 97.5066 |
Eccentricity | 0.0013611 |
Argument of Perigee | 114.2205 |
Mean Anonmoly | 246.045 |
Mean Motion | 15.12906395 |
Decay Rate | 9.62E-06 |
L1 | 1 47617U 21006EJ 21056.88454075 .00000962 00000-0 58206-4 0 9991 |
L2 | 2 47617 97.5066 120.0485 0013611 114.2205 246.0450 15.12906395 6151 |
Live tracking and technical data element details for FLOCK 4S-48 (NORAD 47617). FLOCK 4S-48 can be tracked NOW for your location showing map with azimuth and elevation plus other details from your city location.
Track the satellite on the map from your city or location and see movement details for azimuth, elevation, latitude, longitude, range, height, and movement on the map or in text.
IsCatalogInMostPopularTable: catalog: 47617, numindb: 1
Update: records affected: 1
GetName: 47617 FLOCK 4S-48
Hit Count: updated at: Fri, 26 Feb 2021 09:00:50 GMT